Temp
2 2 2 2 2 3 3 3 3 3 3 2 3 4 4 5 6 7 8 9 10 9 9 9 9 10 10 9 9 9 9 9 7 4 5 5 5 5 5 5 4 4 3
1 1 1 1 1 2 2 2 2 2 2 2 3 3 3 5 6 8 8 9 9 9 9 9 9 9 9 9 9 9 8 9 8 4 3 3 4 4 5 4 3 2 3
-0 -0 -0 -0 -0 0 1 1 2 2 2 2 2 3 3 4 6 8 8 9 9 9 9 9 9 9 9 8 8 8 8 8 8 7 3 3 2 2 3 3 2 2 2
-1 -1 -1 -1 -1 -1 -0 1 1 1 1 2 2 2 3 3 5 8 8 9 9 8 9 9 9 9 9 8 8 8 7 7 6 6 3 2 1 0 2 1 0 1 1
-2 -2 -2 -1 -1 -1 -1 -0 0 0 1 2 1 2 2 3 5 7 8 8 8 8 9 8 9 9 9 9 8 8 7 6 5 3 1 0 -0 -1 -0 -0 -0 -0 -0
-2 -2 -2 -2 -2 -2 -1 -1 -1 -0 1 1 1 1 2 2 4 5 8 8 8 8 8 8 8 8 8 8 8 8 7 6 4 3 1 1 -0 -0 -0 -0 -1 -2 -2
-3 -3 -3 -3 -2 -2 -2 -2 -1 -1 0 1 1 1 1 2 3 6 7 8 8 8 8 8 7 8 7 7 7 6 6 6 6 5 3 1 -0 0 1 -0 -1 -1 -1
-4 -4 -3 -3 -3 -3 -3 -2 -2 -1 0 0 1 1 1 2 3 5 6 7 7 8 8 7 7 7 6 5 5 4 3 3 4 4 5 4 3 2 2 2 0 -1 -2
-4 -4 -4 -4 -4 -4 -3 -3 -2 -2 -0 0 0 1 1 2 3 4 5 6 7 6 6 6 6 5 5 5 4 2 1 1 2 2 3 2 2 2 1 1 -1 -2 -4
-5 -5 -5 -4 -4 -4 -3 -3 -2 -1 -0 -0 0 0 1 2 4 4 5 5 4 4 3 4 4 4 3 3 3 2 -1 -2 -1 -1 -1 -1 -0 -0 -0 0 0 -0 -3
-5 -5 -5 -5 -4 -4 -4 -3 -3 -2 -1 -0 -0 0 1 3 2 2 3 3 3 2 1 2 2 1 0 1 2 1 -0 -1 -1 -0 -1 -2 -2 -1 -1 -1 -1 -1 -2
-6 -5 -5 -5 -4 -4 -4 -3 -2 -1 -1 -1 -1 -0 1 1 1 1 1 2 1 1 1 1 0 -0 -1 0 1 -1 -1 -1 -1 -2 -3 -3 -3 -3 -3 -3 -3 -3 -3
-6 -5 -4 -4 -4 -4 -4 -3 -2 -1 -1 -1 -1 -1 -0 -0 0 0 0 0 0 0 0 0 -0 -1 -1 -1 -2 -2 -2 -1 -2 -3 -4 -5 -4 -4 -4 -4 -4 -4 -5
-5 -5 -4 -4 -4 -3 -3 -3 -2 -1 -1 -1 -1 -1 -1 -1 -0 -0 -0 -0 -0 -0 -0 -1 -1 -1 -2 -3 -4 -3 -2 -2 -2 -3 -5 -5 -5 -5 -5 -5 -5 -6 -6
-6 -6 -5 -4 -4 -3 -3 -3 -1 -1 -1 -1 -1 -1 -1 -1 -1 -1 -1 -1 -1 -1 -1 -2 -3 -3 -4 -4 -4 -3 -3 -3 -3 -4 -5 -6 -6 -6 -6 -6 -6 -7 -7
-6 -6 -5 -3 -3 -3 -3 -2 -1 -1 -1 -1 -1 -0 -1 -0 -1 -1 -1 -1 -1 -1 -3 -3 -4 -4 -5 -5 -4 -4 -4 -4 -4 -4 -5 -5 -6 -7 -8 -8 -8 -8 -8
-7 -6 -5 -3 -3 -3 -3 -2 -1 -1 -1 -1 -1 -1 -0 -1 -1 -1 -1 -1 -2 -3 -4 -4 -5 -5 -5 -5 -4 -4 -5 -4 -4 -5 -5 -6 -7 -8 -8 -9 -9 -9 -9
-7 -6 -4 -3 -2 -2 -2 -2 -1 -1 -1 -1 -1 -0 -0 -1 -1 -1 -1 -2 -3 -4 -4 -5 -5 -4 -4 -4 -4 -4 -5 -5 -5 -6 -6 -7 -8 -8 -9 -9 -9 -9 -9
-7 -6 -4 -3 -2 -1 -1 -1 -1 -1 -1 -1 -1 -1 -0 -1 -1 -1 -2 -3 -4 -4 -4 -4 -3 -3 -4 -4 -4 -4 -5 -5 -6 -7 -7 -8 -8 -8 -9 -9 -9 -8 -9
-7 -6 -4 -2 -1 -1 -1 -2 -2 -1 -1 -1 -1 -1 -1 -1 -2 -3 -3 -3 -3 -4 -3 -3 -3 -3 -3 -4 -4 -5 -6 -6 -7 -7 -8 -8 -9 -9 -9 -9 -9 -9 -9
-7 -6 -4 -2 -2 -2 -1 -2 -2 -1 -1 -1 -1 -1 -1 -2 -3 -3 -3 -3 -2 -2 -2 -2 -3 -3 -4 -4 -5 -5 -6 -7 -7 -8 -8 -9 -9 -10 -10 -10 -10 -9 -9
-7 -7 -6 -4 -2 -2 -2 -2 -2 -1 -1 -1 -1 -1 -1 -2 -2 -3 -3 -3 -2 -2 -2 -2 -3 -3 -3 -4 -4 -5 -6 -6 -7 -8 -9 -9 -9 -10 -10 -10 -10 -10 -9
-8 -8 -7 -5 -2 -2 -2 -2 -2 -1 -1 -1 -1 -2 -2 -2 -3 -3 -3 -3 -3 -3 -3 -3 -3 -3 -4 -4 -4 -4 -5 -6 -6 -7 -8 -9 -9 -10 -10 -10 -10 -10 -10
-9 -9 -8 -5 -3 -2 -2 -2 -2 -1 -1 -2 -2 -3 -3 -3 -3 -3 -3 -3 -3 -3 -3 -3 -3 -3 -4 -5 -5 -5 -6 -6 -7 -7 -8 -9 -10 -10 -10 -10 -10 -10 -10
-10 -9 -8 -6 -3 -2 -2 -2 -2 -2 -2 -2 -3 -3 -3 -3 -3 -3 -3 -3 -3 -3 -3 -3 -4 -4 -4 -5 -5 -6 -6 -7 -7 -8 -9 -9 -10 -10 -10 -10 -10 -10 -10
-10 -9 -8 -6 -3 -2 -2 -2 -2 -2 -3 -3 -3 -3 -3 -4 -3 -3 -4 -4 -4 -4 -4 -4 -4 -4 -5 -5 -6 -6 -7 -7 -8 -8 -8 -9 -9 -10 -10 -10 -10 -10 -10
Height
818 813 809 804 799 794 789 786 783 780 776 772 767 762 758 755 752 750 749 749 749 750 752 755 757 759 763 768 772 775 778 781 785 791 794 797 801 804 808 812 815 818 821
814 809 804 800 794 789 784 781 778 775 771 766 762 757 752 748 744 742 742 742 743 744 746 749 750 755 759 763 767 770 774 777 781 787 790 795 797 802 803 808 812 817 820
811 805 800 794 789 785 780 775 773 770 765 761 756 751 746 742 737 733 734 735 736 738 740 741 744 749 753 758 762 765 770 773 777 779 785 791 794 799 801 805 811 815 818
806 800 794 789 785 781 776 771 767 764 759 755 751 746 741 737 731 728 728 728 729 732 734 737 739 743 748 752 757 760 765 769 774 776 781 785 791 796 799 803 809 813 816
802 797 791 786 782 776 771 766 762 758 754 750 744 739 734 730 725 723 721 722 724 726 728 732 736 739 743 748 751 756 760 765 769 773 777 783 787 792 795 800 807 811 815
799 793 788 783 777 771 766 762 757 752 748 744 738 733 728 723 719 717 715 717 718 721 724 728 731 735 740 744 748 752 756 761 765 769 774 778 782 786 792 798 804 809 814
793 787 782 778 772 767 762 757 752 746 742 737 731 727 721 717 713 711 710 712 712 715 717 724 726 731 737 741 746 750 753 758 762 764 769 774 778 783 788 796 800 804 808
789 783 778 773 767 762 757 752 746 741 737 731 725 720 715 711 708 707 707 707 708 712 716 720 724 729 734 739 743 748 754 757 761 765 768 772 777 782 788 791 796 803 808
785 779 774 769 762 757 752 746 741 736 731 725 720 715 710 705 704 703 704 704 707 711 714 718 722 727 732 737 741 747 754 760 763 766 769 775 779 784 788 792 797 801 807
781 775 769 764 758 752 747 741 736 731 725 720 715 710 706 701 699 699 701 703 705 709 714 718 723 726 732 736 740 746 754 761 762 766 771 776 781 786 790 794 796 799 803
777 770 763 758 753 747 742 736 731 725 720 716 711 707 703 700 699 700 701 702 704 708 714 718 724 728 733 738 742 748 752 759 764 767 773 780 785 788 791 794 797 801 803
772 765 758 752 747 742 737 730 726 721 716 712 709 706 703 702 701 702 702 703 706 708 714 719 726 731 736 740 746 752 757 761 766 771 777 783 786 790 794 796 799 801 803
767 760 753 747 742 737 732 726 722 717 713 710 708 706 705 704 703 704 705 706 709 712 718 723 730 735 740 745 750 755 761 766 769 774 780 785 789 793 796 798 800 803 804
763 756 748 743 737 733 728 723 718 714 711 709 707 706 706 706 706 706 707 709 712 716 722 729 734 739 744 750 755 760 765 769 772 776 782 788 792 795 797 800 802 804 806
760 752 745 739 734 728 724 719 714 711 709 707 707 707 707 707 707 708 709 711 714 719 725 732 737 743 748 754 759 764 769 773 776 781 785 790 794 796 800 803 804 806 808
756 748 741 736 730 726 721 714 711 708 707 706 706 707 707 709 710 712 713 715 718 723 729 735 742 747 752 757 762 767 772 776 780 784 788 792 795 799 802 804 806 807 809
753 745 738 733 728 723 719 714 710 708 706 705 706 708 709 711 714 716 719 722 726 730 733 740 745 751 755 760 764 769 774 778 782 787 790 793 797 801 803 806 808 809 811
748 741 735 729 725 721 717 713 710 708 707 707 708 709 712 715 718 721 724 727 732 737 739 744 749 754 759 762 767 772 777 781 785 788 792 796 800 802 805 808 809 810 811
744 737 732 727 722 719 715 712 710 708 708 708 710 712 715 718 722 725 728 730 734 739 744 749 753 757 762 765 770 775 778 783 787 790 794 798 801 804 807 808 810 811 812
741 735 730 724 719 716 713 711 709 708 708 710 711 713 717 721 725 728 731 734 738 743 747 751 756 760 764 768 773 777 781 785 789 792 796 799 802 805 807 808 810 811 813
739 733 727 722 717 714 712 710 709 708 709 710 712 715 719 722 727 731 735 738 741 745 749 754 759 763 767 771 775 779 783 786 790 793 796 800 803 805 807 809 811 812 813
737 730 725 720 715 712 709 708 708 708 709 711 714 718 721 725 730 734 738 742 745 749 753 757 761 765 769 773 776 780 783 787 791 794 797 800 803 806 808 810 812 813 813
733 727 721 717 713 709 707 707 707 708 709 711 714 718 723 728 733 738 741 745 749 752 757 760 764 768 772 776 779 782 784 788 791 794 797 800 803 806 808 810 812 813 814
731 725 720 715 711 708 707 706 707 708 709 712 715 719 725 731 736 741 744 748 752 756 760 764 767 770 774 778 782 785 787 790 793 796 798 801 804 807 809 811 812 813 814
730 724 719 714 709 707 707 707 707 709 711 713 716 721 727 733 739 744 747 751 755 759 763 766 770 773 777 780 784 786 789 792 794 797 799 802 804 806 809 810 812 813 815
731 725 719 713 709 708 707 708 708 710 712 715 719 724 729 736 741 746 750 754 757 761 765 769 773 776 779 783 786 789 791 794 796 799 801 802 804 806 808 810 812 813 814
Wind_Speed
27 31 33 30 27 25 27 29 28 28 30 27 27 28 28 28 28 25 27 28 29 27 26 26 28 25 26 25 22 23 24 18 5 5 13 13 21 25 23 21 19 17 16
31 30 32 30 29 29 30 29 27 28 31 26 28 28 28 29 26 26 26 24 25 26 27 27 25 26 23 22 22 25 25 22 12 9 13 15 14 21 24 20 18 16 15
27 28 29 29 29 29 31 29 27 28 31 26 28 28 28 30 28 28 27 25 25 29 27 28 24 24 22 21 22 21 21 19 21 14 11 17 10 19 19 18 17 16 13
28 29 28 29 30 31 31 28 27 28 30 26 30 29 28 30 27 24 20 22 23 25 27 24 24 24 24 23 23 21 20 20 21 18 11 15 13 17 21 23 18 15 12
28 28 28 30 31 31 29 28 28 30 28 27 30 29 29 28 26 24 24 25 24 28 26 22 24 23 21 23 22 20 18 21 22 18 13 10 12 17 22 21 17 14 11
26 27 27 28 29 28 29 28 29 30 27 27 29 28 28 28 26 21 18 17 23 23 26 21 22 19 18 18 20 21 21 22 19 16 14 13 15 18 21 23 19 10 5
28 28 28 27 27 26 28 28 29 30 26 29 29 27 26 27 25 19 17 19 21 21 26 20 18 17 17 17 14 12 12 14 15 21 21 20 19 25 26 23 19 14 7
28 28 27 26 27 28 28 28 29 29 26 29 28 26 25 25 20 17 13 15 17 17 20 22 22 20 19 21 21 19 16 13 12 14 16 17 15 21 21 20 20 14 10
27 27 28 28 28 28 28 29 30 28 26 29 25 25 22 23 18 14 14 16 17 16 18 19 21 22 22 24 24 24 20 16 13 15 17 15 16 16 16 17 20 20 4
27 29 29 29 28 28 29 31 31 26 27 27 24 21 19 19 15 14 16 18 19 20 17 18 20 23 24 24 25 30 30 24 30 28 26 24 22 18 15 11 16 16 8
31 31 30 29 28 29 29 31 29 26 26 23 18 13 7 7 7 7 10 17 22 23 23 23 22 25 23 24 27 30 32 31 28 28 26 22 18 16 13 11 11 8 8
32 32 30 29 29 27 28 29 24 23 21 19 11 5 2 2 1 3 7 14 20 27 25 26 27 26 26 26 27 29 31 29 28 27 26 22 20 18 15 13 11 8 7
31 30 29 29 27 27 26 24 23 21 17 13 8 6 2 1 3 6 11 19 22 27 26 30 29 27 27 29 30 28 27 27 28 27 24 21 18 16 14 13 11 10 9
29 28 26 25 25 26 26 20 20 18 14 10 7 4 3 5 8 12 19 23 27 33 34 32 32 32 31 29 25 24 24 25 26 26 24 21 17 14 13 11 13 10 8
28 27 26 25 26 28 26 22 22 18 12 9 7 6 7 7 11 20 23 27 31 35 36 33 30 31 28 26 26 25 23 21 24 24 23 21 17 15 13 10 9 7 5
28 25 24 23 23 23 21 23 20 12 9 6 6 8 9 11 17 23 24 29 36 37 29 26 23 23 22 23 26 23 20 21 22 22 20 18 17 15 14 11 9 9 9
28 28 25 24 19 20 20 17 14 13 4 3 6 8 12 17 19 22 28 29 27 26 24 21 22 22 23 26 26 24 23 21 20 19 18 17 16 14 13 12 11 10 8
29 28 24 22 21 20 20 17 14 9 1 3 7 11 16 19 23 28 28 26 21 19 21 22 23 26 26 26 24 23 23 21 19 18 17 16 14 13 13 12 8 9 10
28 27 26 24 21 19 20 17 11 7 6 8 10 13 19 22 26 26 22 23 22 22 22 23 25 26 25 24 23 23 22 20 19 18 16 15 13 13 14 10 9 7 7
27 27 27 23 20 19 17 12 8 6 9 11 13 16 21 26 19 19 18 21 23 23 23 24 24 24 23 23 22 22 22 20 18 16 15 14 12 10 12 9 8 6 6
27 26 25 22 19 18 15 10 8 8 11 13 16 21 26 20 20 18 18 19 21 23 23 24 24 23 22 22 22 22 19 19 16 16 15 13 12 13 11 9 6 4 5
26 25 23 22 20 17 13 8 7 10 14 17 20 21 22 23 21 19 17 17 19 21 22 23 23 22 21 21 22 20 19 18 16 15 14 14 12 12 10 8 6 4 4
26 24 23 22 18 15 8 6 8 12 16 20 23 23 24 24 21 18 17 18 19 20 20 21 21 20 18 17 16 15 16 16 14 13 14 14 13 11 9 7 5 3 4
25 24 23 21 18 11 6 6 9 15 19 21 24 24 25 25 21 19 20 20 20 20 20 20 20 20 19 18 16 14 13 13 12 12 10 13 13 10 9 7 5 4 3
26 25 23 20 17 7 4 6 11 16 19 21 24 26 27 26 22 21 21 21 21 21 20 20 19 19 18 18 16 15 14 13 12 11 10 9 12 10 7 6 5 3 2
27 26 23 19 13 5 4 9 13 17 20 22 25 28 30 29 25 22 22 21 22 21 21 20 19 19 18 16 14 13 13 11 11 9 8 7 8 8 6 8 5 2 2
Wind_Direction
334 332 329 328 328 326 327 327 321 317 320 313 307 303 299 290 288 264 262 256 250 235 233 231 224 227 222 217 225 230 222 202 160 191 202 207 205 212 204 209 207 209 209
330 328 325 325 326 324 323 322 319 316 317 307 309 301 301 293 291 260 256 247 241 230 226 222 223 224 221 220 220 218 223 221 190 161 187 193 199 211 211 207 203 205 211
321 319 318 321 320 316 318 319 317 316 315 304 312 300 300 296 292 276 247 246 237 232 218 211 219 217 211 213 214 213 216 215 209 186 164 185 182 192 185 190 193 198 204
319 318 316 317 315 311 317 318 317 314 315 305 311 299 298 297 288 272 253 238 233 229 226 227 220 215 215 212 213 207 208 209 205 186 169 164 171 177 183 174 176 187 197
315 312 310 311 310 312 318 320 316 313 309 301 307 299 298 298 285 279 247 242 240 226 226 224 226 219 219 212 208 212 206 204 189 176 158 159 163 167 178 179 180 186 199
309 309 307 305 308 310 316 312 311 309 304 302 302 296 295 294 287 282 242 245 226 233 227 218 217 207 208 210 221 218 212 202 188 172 174 165 170 172 178 176 175 161 191
312 310 308 306 307 309 309 309 307 309 298 304 300 294 291 290 289 277 254 234 224 218 218 208 190 188 197 196 193 192 203 211 223 205 188 176 170 186 182 180 182 178 171
308 306 308 310 309 309 307 305 307 308 298 304 298 294 292 290 286 273 258 221 201 196 201 201 191 179 180 174 165 158 159 167 192 201 202 192 195 187 190 192 186 171 155
308 308 308 308 307 307 304 305 305 305 300 303 294 295 289 290 283 262 233 205 191 192 189 189 185 170 174 180 161 143 129 120 130 142 142 144 147 159 170 169 162 159 134
311 309 306 304 302 301 301 301 303 300 299 300 296 296 288 282 276 216 217 195 178 173 172 168 178 172 169 174 161 148 124 124 128 125 120 123 133 141 153 172 172 165 127
310 306 304 301 300 299 300 301 301 300 301 295 300 301 291 188 160 176 200 187 176 154 147 142 146 144 143 156 158 154 145 142 132 130 128 125 126 128 131 141 158 180 163
311 306 302 303 305 304 304 306 301 300 297 297 296 294 44 85 109 158 159 188 161 146 135 134 137 138 136 149 149 140 141 140 138 133 127 123 122 119 118 122 129 132 123
310 312 303 310 312 314 307 302 304 304 294 291 279 273 266 176 162 165 152 140 145 133 132 133 132 129 126 128 129 132 141 143 139 128 125 125 124 123 125 126 124 122 114
315 315 309 305 311 314 317 304 299 298 291 280 263 223 186 163 154 149 141 134 136 126 126 127 127 124 123 119 125 135 145 144 141 136 132 130 129 129 126 135 135 131 117
316 313 310 301 312 315 317 306 303 302 285 279 246 208 175 152 152 149 140 133 131 132 127 124 120 121 123 124 128 133 136 137 137 138 136 136 135 133 128 145 154 156 122
314 313 311 307 307 312 309 312 325 307 285 258 243 202 181 164 152 148 141 135 137 140 126 123 121 125 124 128 132 135 137 142 142 144 142 141 138 138 132 129 128 115 98
313 311 309 306 302 306 310 308 312 327 306 215 193 181 169 152 147 140 134 132 135 134 122 125 126 131 134 139 143 144 142 146 146 146 143 138 136 132 135 124 111 107 93
318 317 313 302 306 304 306 307 311 299 189 149 167 161 154 151 149 143 136 133 122 128 131 133 136 144 148 147 147 145 142 143 146 144 142 142 144 141 134 128 123 101 81
318 316 313 308 304 305 308 313 304 277 189 164 157 157 154 152 149 144 149 145 136 134 145 148 151 152 152 150 149 149 148 147 147 145 145 149 150 146 141 127 121 95 78
318 318 320 314 307 308 311 307 291 233 177 161 153 147 150 145 137 144 153 152 150 152 158 153 155 155 154 153 151 149 145 149 149 150 150 149 148 152 145 137 122 106 74
317 315 319 317 313 309 309 293 268 215 173 158 154 157 154 148 147 155 154 154 158 160 160 158 158 158 157 155 155 156 153 151 152 151 151 152 150 146 141 136 124 103 62
319 316 314 311 311 311 302 282 246 204 170 152 152 153 161 156 156 151 150 158 162 162 162 160 159 159 160 162 162 157 154 153 152 152 151 150 151 149 143 143 129 95 66
327 325 323 319 309 311 291 259 219 189 165 152 146 143 152 156 153 148 154 156 158 158 159 159 156 155 157 159 158 156 155 155 153 154 155 156 156 154 151 144 136 108 60
339 333 327 324 314 310 277 233 203 178 161 149 148 148 152 154 149 154 153 152 152 153 154 156 153 150 149 149 147 143 145 146 147 147 153 155 152 156 152 153 147 122 78
345 339 335 331 318 309 258 205 180 162 152 149 144 146 152 149 149 149 149 149 148 148 148 149 149 148 147 147 145 143 142 144 143 142 143 151 157 162 165 166 156 120 51
351 345 345 344 338 312 219 174 158 150 144 144 145 149 150 148 147 145 147 147 146 145 145 146 145 143 145 147 147 145 144 144 149 151 151 151 152 165 171 138 144 162 328